[[{"header":{"parameterUnit":"m.s-1","parameterCategory":1,"la1":30.2991,"la2":30.254,"lo1":-89.0895,"lo2":-89.0444,"dy":0.0017,"dx":0.0017,"nx":28,"ny":28,"refTime":"2025-05-23T09:00:00:Z","depth":0,"parameterNumber":2,"parameterNumberName":"U-component_of_WINDS"},"data":[0,0,0,0,0,0,0,0,0,0,0,0,0,0,0,0,0,0,0,0,0,0,0,0,0,0,0,0,0,0,0,0,0,0,0,0,0,0,0,0,0,0,0,0,0,0,0,0,0,0,0,0,0,0,0,0,0,0,-1.1535,-1.1534,0,-1.1463,-1.1462,-1.1461,-1.1408,-1.1408,-1.1407,-1.1407,-1.133,-1.1329,-1.1327,0,0,0,0,0,0,0,0,0,0,0,0,0,-1.1627,-1.1626,-1.1535,-1.1534,-1.1533,-1.1463,-1.1462,-1.1461,-1.1408,-1.1408,-1.1407,-1.1407,-1.1331,-1.1329,-1.1327,0,0,0,0,0,0,0,0,0,0,0,0,0,-1.1574,-1.1625,-1.1535,-1.1499,-1.1495,-1.1463,-1.1462,-1.146,-1.1408,-1.1408,-1.1407,-1.1406,-1.1331,-1.1329,-1.1327,-1.1325,0,0,-1.1319,-1.1318,0,0,0,0,0,0,0,0,-1.1577,-1.1571,-1.1505,-1.1501,-1.1496,-1.1444,-1.1466,-1.1415,-1.1408,-1.1441,-1.1407,-1.1406,-1.1368,-1.1363,-1.1351,-1.1321,-1.1318,-1.1319,-1.1317,-1.1316,-1.1316,0,0,0,0,0,0,0,-1.1581,-1.1573,-1.1506,-1.1504,-1.1499,-1.1485,-1.1477,-1.1456,-1.1409,-1.1438,-1.1434,-1.1426,-1.1366,-1.1353,-1.1348,-1.1317,-1.1319,-1.1317,-1.1315,-1.1314,-1.1282,-1.1283,0,0,0,0,0,0,-1.159,-1.1577,-1.1509,-1.1504,-1.1536,-1.1484,-1.1475,-1.1461,-1.1409,-1.1401,-1.1427,-1.1424,-1.1358,-1.1351,-1.1345,-1.1339,-1.1316,-1.1314,-1.1313,-1.1282,-1.1282,-1.1283,0,0,0,0,0,0,-1.1593,-1.1585,-1.1511,-1.1539,-1.1529,-1.1483,-1.1468,-1.146,-1.1447,-1.1401,-1.1392,-1.1422,-1.1357,-1.1349,-1.133,-1.1336,-1.1313,-1.1311,-1.1281,-1.1282,-1.1283,-1.1327,0,0,0,0,0,0,-1.1595,-1.1586,-1.1585,-1.154,-1.1528,-1.1498,-1.1469,-1.1459,-1.1443,-1.1439,-1.1394,-1.1386,-1.1356,-1.1334,-1.1328,-1.1332,-1.1309,-1.128,-1.1281,-1.1283,-1.1325,-1.133,-1.1334,0,0,0,0,0,-1.1599,-1.16,-1.1585,-1.1577,-1.1526,-1.1498,-1.1491,-1.1457,-1.1444,-1.1442,-1.1413,-1.1388,-1.1337,-1.1333,-1.1325,-1.1329,-1.128,-1.1281,-1.1282,-1.1323,-1.1329,-1.1334,0,0,0,0,0,0,-1.1645,-1.1593,-1.1576,-1.1562,-1.1536,-1.149,-1.1486,-1.1464,-1.1439,-1.1436,-1.1394,-1.1384,-1.137,-1.1348,-1.1344,-1.1325,-1.1305,-1.1305,-1.1339,-1.1344,-1.1348,-1.1353,-1.1307,0,0,0,0,0,-1.1654,-1.1637,-1.1592,-1.1585,-1.1572,-1.1532,-1.1519,-1.1495,-1.1465,-1.1453,-1.1422,-1.1393,-1.137,-1.1356,-1.1333,-1.1323,-1.1312,-1.1322,-1.1326,-1.133,-1.1329,-1.1322,-1.1325,-1.1288,-1.1288,-1.1288,0,0,-1.1672,-1.1641,-1.1633,-1.1593,-1.1569,-1.1552,-1.1522,-1.1505,-1.1492,-1.145,-1.143,-1.1407,-1.1372,-1.1358,-1.135,-1.1339,-1.1338,-1.1331,-1.1335,-1.1332,-1.1324,-1.1327,-1.1331,-1.1289,-1.1288,-1.1288,0,0,-1.1695,-1.1671,-1.1661,-1.1638,-1.1603,-1.1577,-1.1575,-1.1533,-1.1516,-1.1496,-1.1464,-1.1448,-1.141,-1.1387,-1.137,-1.1387,-1.1362,-1.1381,-1.1401,-1.1395,-1.1398,-1.14,-1.1405,-1.1407,-1.1381,-1.1381,-1.1381,0,-1.1721,-1.1694,-1.1659,-1.1644,-1.1627,-1.159,-1.158,-1.156,-1.1519,-1.1508,-1.1497,-1.145,-1.1424,-1.1403,-1.1407,-1.1396,-1.1391,-1.1384,-1.14,-1.1402,-1.1404,-1.1408,-1.141,-1.1383,-1.1383,-1.1383,-1.1383,0,-1.1727,-1.1709,-1.1706,-1.1668,-1.1651,-1.1639,-1.1602,-1.1589,-1.1568,-1.1543,-1.1523,-1.1492,-1.1461,-1.1455,-1.1433,-1.1432,-1.1426,-1.1409,-1.1388,-1.1411,-1.1414,-1.1415,-1.1387,-1.1386,-1.1385,-1.1385,0,0,-1.1774,-1.1719,-1.1718,-1.17,-1.166,-1.1645,-1.1632,-1.1603,-1.1593,-1.1567,-1.1553,-1.1524,-1.1508,-1.1489,-1.1464,-1.1459,-1.1473,-1.1442,-1.144,-1.1447,-1.1468,-1.148,-1.1483,-1.1458,-1.1458,-1.1458,-1.1471,0,-1.1789,-1.1762,-1.1732,-1.1716,-1.1698,-1.1664,-1.1652,-1.1626,-1.1603,-1.1585,-1.1559,-1.1538,-1.1519,-1.1508,-1.1501,-1.1473,-1.1476,-1.1472,-1.1444,-1.1443,-1.1451,-1.1484,-1.1497,-1.151,-1.1472,-1.1472,-1.1472,0,-1.1802,-1.1779,-1.1761,-1.1723,-1.1714,-1.1704,-1.1676,-1.1659,-1.1629,-1.1613,-1.1593,-1.1568,-1.1551,-1.1535,-1.1512,-1.151,-1.1497,-1.1482,-1.1481,-1.1475,-1.1457,-1.1478,-1.1513,-1.1515,-1.1474,-1.1474,-1.1474,0,-1.1837,-1.1801,-1.1785,-1.1772,-1.1727,-1.1721,-1.1702,-1.1671,-1.1656,-1.1632,-1.1622,-1.1596,-1.1581,-1.1562,-1.153,-1.1521,-1.151,-1.1491,-1.1495,-1.1495,-1.1491,-1.1491,-1.1524,-1.1487,-1.1487,-1.1487,-1.1487,0,-1.1855,-1.1846,-1.18,-1.179,-1.1779,-1.1744,-1.1733,-1.1711,-1.1685,-1.167,-1.164,-1.1627,-1.1587,-1.1569,-1.1544,-1.1528,-1.1522,-1.1508,-1.1501,-1.1509,-1.1511,-1.1498,-1.1496,-1.1488,-1.1487,-1.1487,-1.1487,0,-1.189,-1.186,-1.1841,-1.1801,-1.1791,-1.1784,-1.1749,-1.1739,-1.1715,-1.1697,-1.1691,-1.1653,-1.1631,-1.1598,-1.1565,-1.1549,-1.1536,-1.1526,-1.1546,-1.1541,-1.1546,-1.1546,-1.157,-1.1571,-1.1536,-1.1536,-1.1537,0,-1.1903,-1.1895,-1.1855,-1.1843,-1.1825,-1.1807,-1.1792,-1.1759,-1.1744,-1.1711,-1.1704,-1.168,-1.1658,-1.1624,-1.1593,-1.1568,-1.1556,-1.1567,-1.1552,-1.1561,-1.1554,-1.1554,-1.1553,-1.1569,-1.157,-1.157,-1.157,0,-1.1929,-1.1914,-1.1894,-1.1869,-1.1852,-1.1831,-1.1807,-1.18,-1.1762,-1.1747,-1.1724,-1.1708,-1.1675,-1.1651,-1.1622,-1.1603,-1.158,-1.1576,-1.1575,-1.1582,-1.1593,-1.1586,-1.1553,-1.1575,-1.1574,-1.1574,-1.1574,-1.1574,-1.1952,-1.1943,-1.1913,-1.1892,-1.1871,-1.1851,-1.1839,-1.1815,-1.1795,-1.1766,-1.1748,-1.1726,-1.1698,-1.1657,-1.1639,-1.1621,-1.1611,-1.161,-1.161,-1.161,-1.1612,-1.1599,-1.1616,-1.1616,-1.1615,-1.1615,-1.1615,0,-1.1974,-1.1954,-1.1935,-1.1904,-1.1887,-1.187,-1.1844,-1.1831,-1.1812,-1.1787,-1.1767,-1.1741,-1.1718,-1.1687,-1.1662,-1.1654,-1.1643,-1.1648,-1.1647,-1.1642,-1.1623,-1.1625,-1.1657,-1.1657,-1.1657,-1.1657,-1.1657,-1.1657,-1.1984,-1.1967,-1.195,-1.1924,-1.1903,-1.1882,-1.1869,-1.185,-1.183,-1.1803,-1.1784,-1.1764,-1.1737,-1.1709,-1.1687,-1.1679,-1.167,-1.1678,-1.1666,-1.1648,-1.1644,-1.164,-1.1642,-1.1677,-1.1677,-1.1687,-1.1687,-1.1687]},{"header":{"parameterUnit":"m.s-1","parameterCategory":1,"la1":30.2991,"la2":30.254,"lo1":-89.0895,"lo2":-89.0444,"dy":0.0017,"dx":0.0017,"nx":28,"ny":28,"refTime":"2025-05-23T09:00:00:Z","depth":0,"parameterNumber":3,"parameterNumberName":"V-component_of_WINDS"},"data":[0,0,0,0,0,0,0,0,0,0,0,0,0,0,0,0,0,0,0,0,0,0,0,0,0,0,0,0,0,0,0,0,0,0,0,0,0,0,0,0,0,0,0,0,0,0,0,0,0,0,0,0,0,0,0,0,0,0,3.2544,3.2543,0,3.251,3.2509,3.2509,3.2506,3.2507,3.2507,3.2508,3.2469,3.2468,3.2467,0,0,0,0,0,0,0,0,0,0,0,0,0,3.2605,3.2604,3.2544,3.2543,3.2543,3.251,3.2509,3.2509,3.2506,3.2507,3.2507,3.2508,3.247,3.2468,3.2466,0,0,0,0,0,0,0,0,0,0,0,0,0,3.2575,3.2603,3.2544,3.2538,3.2537,3.251,3.2509,3.2509,3.2506,3.2507,3.2507,3.2508,3.247,3.2468,3.2466,3.2442,0,0,3.246,3.2459,0,0,0,0,0,0,0,0,3.2577,3.2573,3.2539,3.2538,3.2537,3.2513,3.2517,3.2486,3.2506,3.2518,3.2508,3.2508,3.2483,3.248,3.2472,3.244,3.2438,3.246,3.2458,3.2458,3.2457,0,0,0,0,0,0,0,3.2579,3.2574,3.253,3.2539,3.2537,3.2536,3.2533,3.2511,3.2497,3.2517,3.2517,3.2513,3.2483,3.2474,3.2471,3.2438,3.246,3.2458,3.2457,3.2456,3.2386,3.2385,0,0,0,0,0,0,3.2583,3.2576,3.2531,3.2529,3.2559,3.2535,3.2531,3.252,3.2498,3.2495,3.2512,3.2513,3.2478,3.2474,3.247,3.2441,3.2458,3.2456,3.2454,3.2387,3.2386,3.2385,0,0,0,0,0,0,3.2584,3.2579,3.2533,3.2553,3.2547,3.2533,3.2521,3.2519,3.2511,3.2494,3.2492,3.2506,3.2478,3.2473,3.245,3.244,3.2455,3.2453,3.2387,3.2386,3.2385,3.2383,0,0,0,0,0,0,3.2586,3.2579,3.257,3.2552,3.2546,3.2513,3.2521,3.2518,3.2508,3.2508,3.2488,3.2485,3.2478,3.2453,3.2448,3.2437,3.2451,3.2388,3.2387,3.2386,3.2384,3.2382,3.2381,0,0,0,0,0,3.2588,3.2569,3.2569,3.2564,3.2534,3.2513,3.2509,3.2502,3.2507,3.2497,3.2487,3.2486,3.2442,3.245,3.2444,3.2433,3.2389,3.2387,3.2386,3.2385,3.2382,3.2381,0,0,0,0,0,0,3.2584,3.2567,3.2567,3.2542,3.2529,3.2512,3.25,3.2499,3.2483,3.2484,3.2475,3.247,3.2448,3.2438,3.2448,3.241,3.2416,3.2413,3.2417,3.2415,3.2413,3.2416,3.245,0,0,0,0,0,3.2581,3.2566,3.2551,3.2531,3.2525,3.2514,3.2504,3.25,3.2485,3.2479,3.2467,3.2453,3.2436,3.2425,3.2408,3.2383,3.2379,3.2372,3.2371,3.2369,3.2367,3.2355,3.2352,3.2381,3.2381,3.2381,0,0,3.2573,3.2562,3.2553,3.253,3.2519,3.2504,3.2509,3.2491,3.248,3.2476,3.2454,3.2445,3.2428,3.2404,3.2393,3.2396,3.2359,3.2368,3.2367,3.2365,3.2353,3.235,3.2348,3.238,3.238,3.238,0,0,3.2551,3.2541,3.2524,3.2514,3.2499,3.2492,3.2488,3.2472,3.2466,3.2444,3.2442,3.2427,3.2398,3.2386,3.2377,3.2353,3.2352,3.2348,3.2339,3.2327,3.2325,3.2323,3.2315,3.2313,3.2346,3.2346,3.2346,0,3.2543,3.2521,3.2515,3.2499,3.2489,3.2487,3.247,3.246,3.2439,3.2433,3.2436,3.2401,3.2389,3.2363,3.2358,3.235,3.2345,3.235,3.2326,3.2324,3.2322,3.2314,3.2311,3.2345,3.2345,3.2346,3.2346,0,3.2512,3.2496,3.2484,3.2467,3.2456,3.2439,3.2431,3.242,3.2417,3.241,3.2389,3.2375,3.2356,3.235,3.2346,3.2324,3.2326,3.2328,3.2334,3.2319,3.2312,3.2309,3.2345,3.2345,3.2345,3.2345,0,0,3.2486,3.2467,3.2463,3.2456,3.244,3.2427,3.241,3.2394,3.2385,3.2371,3.2357,3.2334,3.2336,3.2325,3.232,3.231,3.2293,3.2313,3.2312,3.231,3.2269,3.2269,3.2265,3.2293,3.2292,3.2291,3.2271,0,3.2463,3.2435,3.243,3.2405,3.2391,3.239,3.2376,3.2364,3.2357,3.2344,3.2336,3.232,3.2324,3.2317,3.2307,3.2298,3.2285,3.2299,3.2279,3.2279,3.2284,3.2262,3.226,3.2241,3.2268,3.2268,3.2267,0,3.2432,3.242,3.2394,3.2382,3.2375,3.2363,3.2348,3.2335,3.2322,3.2318,3.2308,3.2305,3.2287,3.2295,3.2271,3.2281,3.2272,3.2267,3.2266,3.2264,3.2272,3.2259,3.2235,3.2233,3.2263,3.2263,3.2263,0,3.2417,3.2393,3.2375,3.2369,3.2354,3.2345,3.2338,3.2326,3.2317,3.2304,3.2298,3.2283,3.2274,3.2262,3.2255,3.2261,3.2233,3.2239,3.2229,3.2229,3.2223,3.2223,3.2197,3.2217,3.2217,3.2217,3.2217,0,3.2391,3.2376,3.2369,3.2357,3.234,3.2335,3.2318,3.2311,3.2301,3.2288,3.2286,3.2274,3.2266,3.2253,3.2247,3.2229,3.2225,3.2221,3.222,3.2222,3.2222,3.2216,3.2217,3.2216,3.2216,3.2217,3.2217,0,3.2371,3.2366,3.2346,3.2334,3.2331,3.2319,3.2309,3.2298,3.2292,3.2276,3.2272,3.2263,3.2247,3.224,3.222,3.2216,3.2196,3.2195,3.2201,3.2201,3.2191,3.2193,3.2161,3.2157,3.2179,3.2178,3.2178,0,3.2356,3.2344,3.2332,3.2324,3.2318,3.2305,3.2296,3.2291,3.2282,3.2268,3.2259,3.2244,3.2232,3.2208,3.2198,3.2184,3.2183,3.2173,3.2181,3.2183,3.2184,3.2185,3.2184,3.2171,3.2171,3.2171,3.2171,0,3.2329,3.2328,3.2316,3.2304,3.2294,3.2284,3.2274,3.2267,3.2261,3.2251,3.2236,3.2227,3.2208,3.2194,3.2179,3.2171,3.217,3.2169,3.2166,3.2167,3.2172,3.217,3.2198,3.2169,3.217,3.217,3.217,3.217,3.2311,3.2301,3.2292,3.228,3.2272,3.2263,3.2253,3.2247,3.2235,3.2221,3.2218,3.2203,3.2192,3.2172,3.2164,3.2152,3.2154,3.2149,3.2148,3.2147,3.2147,3.2174,3.2149,3.2149,3.2149,3.2149,3.2149,0,3.2285,3.228,3.2268,3.2256,3.2246,3.2248,3.2237,3.2229,3.2216,3.2206,3.2195,3.2179,3.2165,3.2156,3.2142,3.2134,3.2133,3.213,3.2131,3.213,3.2146,3.215,3.2131,3.2131,3.2131,3.2131,3.2131,3.2132,3.227,3.2255,3.2253,3.2233,3.2228,3.2214,3.2208,3.22,3.2192,3.2175,3.2164,3.2159,3.215,3.2135,3.2123,3.2121,3.2116,3.2113,3.2111,3.2126,3.2128,3.213,3.2134,3.2112,3.2112,3.2096,3.2096,3.2096]}]]